HULIANWANG DIGUI-16

导读 | 豆包AI

HULIANWANG DIGUI-16(“互联网地轨16号”)是中国于2025年2月11日发射的低轨卫星,隶属于中国低轨互联网星座体系。卫星运行于近地轨道,主要面向全球提供高速互联网接入服务,可填补地面通信网络在偏远地区、海洋空域的覆盖盲区,支持机载通信、海上联网、应急通信等多场景应用,进一步完善中国低轨卫星互联网的星座组网布局,助力天地一体化信息网络建设。

基本信息
目录编号:
62976
目录名称:
HULIANWANG DIGUI-16
国际标识:
2025-030F
轨道中心:
EARTH
卫星名称:
HULIANWANG DIGUI-16
卫星全名:
HULIANWANG DIGUI-16
卫星状态:
在轨 (已飞行395 天)
发射日期:
2025-02-11 UTC
国别 :
中国 (CN)
星等 :
--
轨道信息
数据来源 国际轨道数据 AOE轨道数据
星历时间 2026-03-13T21:33:52+0800
10小时前
查看轨道信息
2026-03-09T11:00:00+0800
4天前
查看轨道信息
半长轴 7527.395km 7527.392km
偏心率 0.0000876 0.0001499
轨道倾角 50.004° 50.002°
近地点辐角 183.373° 162.461°
升交点赤经 218.560° 234.484°
平近点角 176.714° 175.423°
近地点 1148.598km 1148.126km
远地点 1149.918km 1150.384km
周期 108.325分钟 108.324分钟
每日圈数 13.29339 13.293397
详细信息
使用方式:
暂无
2D轨道图
3D轨道图
轨道高度分析图
轨道倾角分析图
轨道综合分析图
查看轨道综合分析图